M8FSI-13 Weather Reports


time (UTC)temp
F
wind
direction
speed
knots
gust
knots
rain 1hr
in
rain 24hr
in
rain mn
in
humidity
%
barometer
mb
20260505183520 59 0.0 1.7 0.00 0.00 0.00 66 1012.0
20260505182520 59 315 0.9 2.6 0.00 0.00 0.00 65 1011.8
20260505181535 59 0.0 1.7 0.00 0.00 0.00 65 1011.8
20260505180519 60 0.0 1.7 0.00 0.02 0.00 64 1011.8
20260505175535 60 0.0 1.7 0.00 0.02 0.00 63 1011.9
20260505174521 59 23 0.9 1.7 0.00 0.02 0.00 63 1011.9
20260505173559 59 315 0.9 3.5 0.00 0.02 0.00 63 1011.9
20260505172601 60 315 0.9 3.5 0.00 0.02 0.00 62 1011.9
20260505171520 60 0.0 1.7 0.00 0.02 0.00 62 1011.9
20260505170534 60 315 0.9 1.7 0.00 0.02 0.00 61 1011.9
20260505165534 60 293 0.9 3.5 0.00 0.02 0.00 61 1012.1
20260505164519 60 0 0.9 2.6 0.00 0.02 0.00 60 1012.1
20260505163605 61 23 1.7 5.2 0.00 0.02 0.00 59 1011.9
20260505162555 61 0 0.9 2.6 0.00 0.02 0.00 58 1011.9
20260505161520 61 45 1.7 5.2 0.00 0.02 0.00 56 1011.9
20260505160521 62 0 0.9 2.6 0.00 0.02 0.00 57 1012.0
20260505152519 61 315 0.9 5.2 0.00 0.02 0.00 57 1012.0
20260505151519 61 315 0.9 3.5 0.00 0.02 0.00 57 1012.0
20260505150601 61 23 0.9 3.5 0.00 0.02 0.00 57 1012.2
20260505140519 62 23 1.7 5.2 0.00 0.02 0.00 59 1012.3
20260505124520 61 68 2.6 5.2 0.00 0.02 0.00 61 1012.7
20260505123519 60 338 2.6 5.2 0.00 0.02 0.00 63 1012.7
20260505122519 60 315 2.6 6.1 0.00 0.02 0.00 63 1012.8
20260505121524 59 315 1.7 5.2 0.00 0.02 0.00 64 1012.9
20260505120554 59 293 1.7 2.6 0.00 0.02 0.00 64 1012.9
20260505115534 59 338 0.9 2.6 0.00 0.02 0.00 65 1012.8
20260505114614 59 293 1.7 4.3 0.00 0.02 0.00 65 1012.9
20260505113535 59 23 2.6 7.8 0.00 0.02 0.00 64 1013.0
20260505112520 59 45 1.7 7.0 0.00 0.02 0.00 64 1012.9
20260505111519 60 0 1.7 6.1 0.00 0.02 0.00 63 1013.1
20260505110539 60 68 1.7 5.2 0.00 0.02 0.00 63 1013.1
20260505101539 61 338 3.5 7.8 0.00 0.02 0.00 58 1013.0
20260505100539 60 45 3.5 7.8 0.00 0.02 0.00 59 1013.0
20260505095533 60 315 3.5 8.7 0.00 0.02 0.00 61 1012.9
20260505094520 60 315 3.5 10.4 0.00 0.02 0.00 62 1013.1
20260505093519 60 23 3.5 7.8 0.00 0.02 0.00 61 1012.9
20260505092519 60 315 2.6 7.8 0.00 0.02 0.00 64 1013.1
20260505091534 59 270 1.7 4.3 0.00 0.02 0.00 65 1013.2
20260505090519 58 338 1.7 6.1 0.00 0.02 0.00 67 1013.5
20260505085535 58 315 1.7 7.0 0.00 0.02 0.00 68 1013.3
20260505084520 57 45 2.6 7.8 0.00 0.02 0.00 69 1013.5
20260505083519 57 45 2.6 7.8 0.00 0.02 0.00 70 1013.5
20260505082519 57 45 4.3 8.7 0.00 0.02 0.00 71 1013.5
20260505081557 57 45 4.3 9.6 0.00 0.02 0.00 70 1013.4
20260505080524 56 45 3.5 10.4 0.00 0.02 0.00 72 1013.5
20260505075539 56 45 2.6 9.6 0.00 0.02 0.00 74 1013.4
20260505074519 56 68 1.7 11.3 0.00 0.02 0.00 76 1013.5
20260505073533 56 45 3.5 8.7 0.00 0.02 0.00 77 1013.5
20260505072533 55 45 1.7 5.2 0.00 0.02 0.00 80 1013.4
20260505071533 55 45 2.6 8.7 0.00 0.02 0.00 80 1013.5
20260505070519 54 45 1.7 7.0 0.00 0.02 0.00 83 1013.5
20260505065519 54 45 2.6 6.1 0.00 0.02 0.00 84 1013.6
20260505064518 54 315 0.9 2.6 0.00 0.02 0.00 85 1013.8
20260505063524 54 68 1.7 4.3 0.00 0.02 0.00 85 1014.0
20260505062519 54 45 0.9 1.7 0.00 0.02 0.00 86 1013.8
20260505061539 54 45 0.9 2.6 0.00 0.02 0.00 86 1013.7
20260505060519 53 23 1.7 4.3 0.00 0.02 0.00 86 1013.8
20260505055520 53 45 1.7 4.3 0.00 0.02 0.00 86 1013.8
20260505054557 53 45 2.6 5.2 0.00 0.02 0.00 86 1013.8
20260505053539 53 45 1.7 3.5 0.00 0.02 0.00 87 1013.8
20260505052519 53 45 2.6 6.1 0.00 0.02 0.00 87 1013.8
20260505051519 53 45 1.7 6.1 0.00 0.02 0.00 88 1013.7
20260505050519 52 68 0.9 2.6 0.00 0.02 0.00 89 1013.7
20260505041533 53 45 2.6 6.1 0.00 0.02 0.00 87 1013.7
20260505040523 53 45 2.6 6.1 0.00 0.02 0.00 87 1013.7
20260505035538 53 45 2.6 5.2 0.00 0.02 0.00 87 1013.7
20260505034518 54 68 1.7 3.5 0.00 0.02 0.00 87 1014.1
20260505033518 54 68 2.6 5.2 0.00 0.02 0.00 88 1014.1
20260505032533 54 68 1.7 2.6 0.00 0.02 0.00 88 1014.1
20260505031519 54 68 0.9 2.6 0.00 0.02 0.00 88 1014.2
20260505030538 54 68 1.7 4.3 0.00 0.02 0.00 87 1014.1
20260505025523 54 45 1.7 3.5 0.00 0.02 0.00 88 1014.1
20260505024518 54 45 0.9 2.6 0.00 0.02 0.00 88 1014.1
20260505023630 54 45 1.7 3.5 0.00 0.02 0.00 88 1014.1
20260505022600 54 45 1.7 3.5 0.00 0.02 0.00 88 1014.1
20260505021518 54 68 1.7 3.5 0.00 0.02 0.00 88 1014.2
20260505020519 55 68 1.7 3.5 0.00 0.02 0.00 88 1014.2
20260505015520 55 68 0.9 1.7 0.00 0.02 0.00 88 1014.3
20260505014519 55 68 0.9 0.9 0.00 0.02 0.00 88 1014.5
20260505013518 55 45 0.9 1.7 0.00 0.02 0.00 88 1014.5
20260505012533 55 68 0.9 2.6 0.00 0.02 0.00 88 1014.6
20260505011538 55 68 2.6 4.3 0.00 0.02 0.00 88 1014.5
20260505010518 55 45 1.7 3.5 0.00 0.02 0.00 88 1014.6
20260505005520 55 45 0.9 3.5 0.00 0.02 0.00 89 1014.4
20260505004518 55 45 0.9 1.7 0.00 0.02 0.00 89 1014.9
20260505003518 55 68 0.9 1.7 0.00 0.02 0.00 90 1014.9
20260505002519 55 0.0 1.7 0.00 0.02 0.00 90 1014.8
20260505001518 55 45 0.9 1.7 0.00 0.02 0.00 90 1014.8
20260505000523 55 135 0.9 2.6 0.00 0.02 0.00 91 1014.9
20260504235518 55 225 0.9 0.9 0.00 0.02 0.00 91 1015.1
20260504234533 55 225 0.9 0.9 0.00 0.02 0.00 91 1015.0
20260504233559 55 225 0.9 1.7 0.00 0.02 0.00 90 1015.2
20260504232520 55 0.0 0.9 0.00 0.02 0.00 90 1015.1
20260504231551 55 90 0.9 1.7 0.00 0.02 0.00 91 1014.9
20260504230519 54 0.0 0.9 0.00 0.02 0.00 91 1014.9
20260504225600 54 0.0 0.9 0.00 0.02 0.02 91 1014.9
20260504224554 55 90 0.9 0.9 0.00 0.02 0.02 91 1015.0
20260504223520 55 0.0 0.0 0.00 0.02 0.02 91 1015.1
20260504222534 55 0.0 0.0 0.00 0.02 0.02 91 1015.1
20260504221540 55 0.0 0.9 0.00 0.02 0.02 91 1015.2
20260504220519 55 0.0 0.9 0.00 0.02 0.02 91 1015.3
20260504215520 55 135 0.9 0.9 0.00 0.02 0.02 91 1015.4
20260504214600 55 0.0 0.9 0.00 0.02 0.02 90 1015.3
20260504213521 55 0.0 0.0 0.00 0.02 0.02 90 1015.4
20260504212518 55 225 0.9 0.9 0.00 0.02 0.02 90 1015.4
20260504211541 55 225 0.9 0.9 0.00 0.02 0.02 89 1015.3
20260504210535 55 0.0 0.9 0.00 0.02 0.02 89 1015.3
20260504205535 55 90 1.7 1.7 0.00 0.02 0.02 88 1015.3
20260504204520 56 90 0.9 1.7 0.00 0.02 0.02 88 1015.2
20260504203519 56 113 0.9 0.9 0.00 0.02 0.02 88 1015.4
20260504202533 56 0.0 0.9 0.00 0.02 0.02 88 1015.4
20260504201519 56 0.0 0.9 0.00 0.02 0.02 87 1015.3
20260504200519 56 0.0 0.9 0.00 0.02 0.02 88 1015.1
20260504195539 56 0.0 0.9 0.00 0.02 0.02 87 1015.1
20260504194524 56 0.0 0.9 0.00 0.02 0.02 87 1015.0
20260504193535 56 135 0.9 1.7 0.00 0.02 0.02 87 1015.0
20260504192519 56 135 0.9 1.7 0.00 0.02 0.02 87 1014.9
20260504191519 56 158 1.7 2.6 0.00 0.02 0.02 87 1014.7
20260504190519 56 158 0.9 1.7 0.02 0.02 0.02 86 1014.9
20260504185548 57 180 1.7 2.6 0.02 0.02 0.02 86 1014.9
20260504184524 57 158 1.7 2.6 0.02 0.02 0.02 86 1014.8